DW5684 Weather Reports


Display with metric or nautical units.
time (UTC)temp
F
wind
direction
speed
MPH
gust
MPH
rain 1hr
in
rain 24hr
in
rain mn
in
humidity
%
barometer
mb
20260904200813 102 120 2.0 5.0 0.00 0.00 0.00 38 1014.0
20260904195823 101 226 1.0 7.0 0.00 0.00 0.00 39 1014.2
20260904195322 102 20 2.0 7.0 0.00 0.00 0.00 38 1014.2
20260904194837 101 187 2.0 6.0 0.00 0.00 0.00 38 1014.3
20260904194311 100 219 0.0 7.0 0.00 0.00 0.00 41 1014.3
20260904193846 100 238 3.0 7.0 0.00 0.00 0.00 39 1014.4
20260904193318 100 212 2.0 5.0 0.00 0.00 0.00 40 1014.4
20260904192813 101 213 3.0 6.0 0.00 0.00 0.00 39 1014.5
20260904192308 102 241 1.0 6.0 0.00 0.00 0.00 39 1014.6
20260904191823 102 232 2.0 5.0 0.00 0.00 0.00 41 1014.7
20260904191318 101 197 0.0 3.0 0.00 0.00 0.00 39 1014.7
20260904190817 101 174 2.0 7.0 0.00 0.00 0.00 39 1014.8
20260904190310 100 164 3.0 7.0 0.00 0.00 0.00 40 1015.0
20260904185825 100 266 0.0 6.0 0.00 0.00 0.00 40 1015.0
20260904185320 99 174 3.0 8.0 0.00 0.00 0.00 44 1014.9
20260904184814 99 215 1.0 8.0 0.00 0.00 0.00 45 1015.0
20260904184308 99 229 5.0 8.0 0.00 0.00 0.00 42 1015.1
20260904183823 99 229 2.0 5.0 0.00 0.00 0.00 42 1015.1
20260904183338 100 65 1.0 5.0 0.00 0.00 0.00 42 1015.2
20260904182836 99 65 1.0 7.0 0.00 0.00 0.00 42 1015.2
20260904182309 98 68 2.0 7.0 0.00 0.00 0.00 43 1015.3
20260904181824 98 215 2.0 8.0 0.00 0.00 0.00 42 1015.3
20260904181320 99 159 3.0 8.0 0.00 0.00 0.00 43 1015.4
20260904180813 98 113 1.0 6.0 0.00 0.00 0.00 45 1015.4
20260904180307 98 204 3.0 7.0 0.00 0.00 0.00 44 1015.5
20260904175822 98 226 2.0 7.0 0.00 0.00 0.00 46 1015.6
20260904175318 98 120 3.0 8.0 0.00 0.00 0.00 44 1015.8
20260904174817 98 231 3.0 8.0 0.00 0.00 0.00 45 1015.8
20260904174312 97 231 2.0 7.0 0.00 0.00 0.00 46 1015.9
20260904173826 98 226 4.0 6.0 0.00 0.00 0.00 43 1015.9
20260904173321 98 221 2.0 7.0 0.00 0.00 0.00 46 1015.9
20260904172835 98 218 3.0 8.0 0.00 0.00 0.00 46 1016.0
20260904172308 97 184 1.0 8.0 0.00 0.00 0.00 48 1016.1
20260904171823 97 217 3.0 7.0 0.00 0.00 0.00 46 1016.1
20260904171318 97 158 2.0 7.0 0.00 0.00 0.00 49 1016.2
20260904170817 96 199 3.0 6.0 0.00 0.00 0.00 48 1016.2
20260904170331 96 103 1.0 5.0 0.00 0.00 0.00 49 1016.3
20260904165843 96 216 3.0 5.0 0.00 0.00 0.00 49 1016.3
20260904165317 96 142 1.0 5.0 0.00 0.00 0.00 51 1016.4
20260904164812 96 250 1.0 6.0 0.00 0.00 0.00 49 1016.4
20260904164327 96 224 1.0 6.0 0.00 0.00 0.00 51 1016.4
20260904163821 96 192 0.0 4.0 0.00 0.00 0.00 50 1016.5
20260904163316 95 188 1.0 5.0 0.00 0.00 0.00 52 1016.5
20260904162811 94 212 0.0 5.0 0.00 0.00 0.00 53 1016.5
20260904162310 94 220 2.0 5.0 0.00 0.00 0.00 53 1016.5
20260904161845 93 158 1.0 5.0 0.00 0.00 0.00 55 1016.5
20260904161319 93 224 3.0 7.0 0.00 0.00 0.00 53 1016.5
20260904160814 94 162 2.0 5.0 0.00 0.00 0.00 54 1016.5
20260904160308 94 193 2.0 6.0 0.00 0.00 0.00 56 1016.6
20260904155842 93 159 2.0 6.0 0.00 0.00 0.00 55 1016.7
20260904155316 92 210 1.0 4.0 0.00 0.00 0.00 57 1016.7
20260904154831 92 221 0.0 6.0 0.00 0.00 0.00 59 1016.7
20260904154323 92 208 3.0 6.0 0.00 0.00 0.00 57 1016.7
20260904153818 92 207 1.0 7.0 0.00 0.00 0.00 57 1016.7
20260904153317 92 169 1.0 7.0 0.00 0.00 0.00 58 1016.8
20260904152833 92 279 0.0 4.0 0.00 0.00 0.00 58 1016.7
20260904152326 91 224 1.0 5.0 0.00 0.00 0.00 60 1016.7
20260904151840 90 209 3.0 5.0 0.00 0.00 0.00 59 1016.8
20260904151313 90 206 2.0 4.0 0.00 0.00 0.00 60 1016.7
20260904150848 90 165 1.0 4.0 0.00 0.00 0.00 61 1016.8
20260904150320 90 230 1.0 6.0 0.00 0.00 0.00 60 1016.7
20260904145815 90 221 2.0 6.0 0.00 0.00 0.00 59 1016.7
20260904145309 90 153 1.0 4.0 0.00 0.00 0.00 61 1016.7
20260904144826 90 221 1.0 4.0 0.00 0.00 0.00 60 1016.7
20260904144319 90 208 1.0 4.0 0.00 0.00 0.00 60 1016.7
20260904143813 90 263 0.0 3.0 0.00 0.00 0.00 61 1016.7
20260904143325 89 193 0.0 4.0 0.00 0.00 0.00 62 1016.7
20260904142820 88 219 2.0 4.0 0.00 0.00 0.00 63 1016.7
20260904142314 88 208 2.0 4.0 0.00 0.00 0.00 63 1016.7
20260904141810 88 228 0.0 3.0 0.00 0.00 0.00 63 1016.7
20260904141323 87 214 1.0 5.0 0.00 0.00 0.00 63 1016.7
20260904140818 88 216 2.0 5.0 0.00 0.00 0.00 63 1016.7
20260904140312 88 164 2.0 4.0 0.00 0.00 0.00 62 1016.6
20260904135830 88 208 0.0 4.0 0.00 0.00 0.00 64 1016.6
20260904135324 87 223 1.0 4.0 0.00 0.00 0.00 63 1016.6
20260904134819 88 188 2.0 5.0 0.00 0.00 0.00 62 1016.6
20260904134314 89 208 1.0 5.0 0.00 0.00 0.00 61 1016.6
20260904133809 89 147 0.0 0.0 0.00 0.00 0.00 62 1016.6
20260904133323 88 152 0.0 0.0 0.00 0.00 0.00 64 1016.7
20260904132857 87 151 0.0 0.0 0.00 0.00 0.00 66 1016.6
20260904132326 86 224 0.0 0.0 0.00 0.00 0.00 68 1016.6
20260904131821 85 219 0.0 0.0 0.00 0.00 0.00 68 1016.5
20260904131336 85 226 0.0 1.0 0.00 0.00 0.00 69 1016.4
20260904130813 84 197 0.0 1.0 0.00 0.00 0.00 69 1016.3
20260904130309 83 233 0.0 0.0 0.00 0.00 0.00 71 1016.4
20260904125844 82 226 0.0 0.0 0.00 0.00 0.00 72 1016.4
20260904125318 81 226 0.0 0.0 0.00 0.00 0.00 75 1016.4
20260904124813 78 226 0.0 0.0 0.00 0.00 0.00 80 1016.4
20260904124308 75 226 0.0 0.0 0.00 0.00 0.00 86 1016.4
20260904123822 73 226 0.0 0.0 0.00 0.00 0.00 88 1016.3
20260904123316 72 226 0.0 0.0 0.00 0.00 0.00 88 1016.3
20260904122831 72 226 0.0 0.0 0.00 0.00 0.00 88 1016.3
20260904122309 72 226 0.0 0.0 0.00 0.00 0.00 88 1016.3
20260904121824 72 226 0.0 0.0 0.00 0.00 0.00 88 1016.2
20260904121318 72 226 0.0 0.0 0.00 0.00 0.00 88 1016.1
20260904120810 72 226 0.0 0.0 0.00 0.00 0.00 88 1016.1
20260904120323 72 226 0.0 0.0 0.00 0.00 0.00 87 1016.1
20260904115818 72 226 0.0 0.0 0.00 0.00 0.00 87 1016.0
20260904115310 72 226 0.0 0.0 0.00 0.00 0.00 87 1015.9
20260904114824 72 226 0.0 0.0 0.00 0.00 0.00 87 1016.0
20260904114317 72 226 0.0 0.0 0.00 0.00 0.00 86 1015.9
20260904113810 72 226 0.0 0.0 0.00 0.00 0.00 86 1016.0
20260904113308 73 226 0.0 0.0 0.00 0.00 0.00 86 1015.9
20260904112820 73 226 0.0 0.0 0.00 0.00 0.00 85 1015.9
20260904112313 73 226 0.0 0.0 0.00 0.00 0.00 85 1015.8
20260904111808 73 226 0.0 0.0 0.00 0.00 0.00 84 1015.7
20260904111343 74 226 0.0 0.0 0.00 0.00 0.00 84 1015.7
20260904110817 74 226 0.0 0.0 0.00 0.00 0.00 84 1015.6
20260904110312 74 226 0.0 0.0 0.00 0.00 0.00 84 1015.6
20260904105825 74 226 0.0 0.0 0.00 0.00 0.00 84 1015.6
20260904105318 74 226 0.0 0.0 0.00 0.00 0.00 84 1015.5
20260904104832 73 226 0.0 0.0 0.00 0.00 0.00 84 1015.5
20260904104324 74 226 0.0 0.0 0.00 0.00 0.00 83 1015.5
20260904103821 74 226 0.0 0.0 0.00 0.00 0.00 83 1015.4
20260904103316 74 225 0.0 0.0 0.00 0.00 0.00 82 1015.5
20260904102810 74 226 0.0 0.0 0.00 0.00 0.00 82 1015.6
20260904102325 75 226 0.0 0.0 0.00 0.00 0.00 81 1015.5
20260904101818 75 226 0.0 0.0 0.00 0.00 0.00 81 1015.4
20260904101312 75 226 0.0 0.0 0.00 0.00 0.00 80 1015.4
20260904100826 75 226 0.0 0.0 0.00 0.00 0.00 80 1015.3
20260904100341 75 226 0.0 0.0 0.00 0.00 0.00 80 1015.2
20260904095815 76 225 0.0 0.0 0.00 0.00 0.00 79 1015.3
20260904095329 76 226 0.0 0.0 0.00 0.00 0.00 79 1015.2
20260904094826 76 226 0.0 0.0 0.00 0.00 0.00 78 1015.1
20260904094321 76 166 0.0 0.0 0.00 0.00 0.00 78 1015.1
20260904093816 76 166 0.0 0.0 0.00 0.00 0.00 78 1015.1
20260904093311 77 161 0.0 0.0 0.00 0.00 0.00 78 1015.0
20260904092826 77 187 0.0 0.0 0.00 0.00 0.00 77 1015.0
20260904092321 77 186 0.0 0.0 0.00 0.00 0.00 77 1014.8
20260904091835 77 186 0.0 3.0 0.00 0.00 0.00 76 1014.8
20260904091309 77 203 1.0 3.0 0.00 0.00 0.00 76 1014.8
20260904090821 78 219 0.0 0.0 0.00 0.00 0.00 76 1014.8
20260904090321 78 231 0.0 0.0 0.00 0.00 0.00 76 1014.7
20260904085815 78 181 0.0 4.0 0.00 0.00 0.00 75 1014.5
20260904085309 78 203 0.0 3.0 0.00 0.00 0.00 75 1014.5
20260904084824 78 180 0.0 3.0 0.00 0.00 0.00 75 1014.5
20260904084318 78 205 0.0 3.0 0.00 0.00 0.00 75 1014.5
20260904083811 78 181 1.0 3.0 0.00 0.00 0.00 74 1014.5
20260904083326 79 159 0.0 4.0 0.00 0.00 0.00 74 1014.4
20260904082821 79 136 1.0 4.0 0.00 0.00 0.00 74 1014.4
20260904082319 79 195 1.0 5.0 0.00 0.00 0.00 74 1014.5
20260904081814 79 158 1.0 5.0 0.00 0.00 0.00 73 1014.5
20260904081329 79 172 1.0 3.0 0.00 0.00 0.00 73 1014.4
20260904080823 79 157 1.0 3.0 0.00 0.00 0.00 73 1014.3
20260904080315 79 165 0.0 3.0 0.00 0.00 0.00 73 1014.3
20260904075810 80 162 1.0 3.0 0.00 0.00 0.00 72 1014.4
20260904075324 80 204 1.0 4.0 0.00 0.00 0.00 72 1014.4
20260904074818 80 154 1.0 4.0 0.00 0.00 0.00 72 1014.4
20260904074315 80 153 2.0 4.0 0.00 0.00 0.00 72 1014.5
20260904073829 80 191 0.0 4.0 0.00 0.00 0.00 72 1014.5
20260904073322 80 201 1.0 4.0 0.00 0.00 0.00 71 1014.5
20260904072815 80 142 0.0 3.0 0.00 0.00 0.00 71 1014.3
20260904072309 80 188 1.0 3.0 0.00 0.00 0.00 71 1014.3
20260904071823 81 153 0.0 4.0 0.00 0.00 0.00 70 1014.3
20260904071336 81 177 1.0 4.0 0.00 0.00 0.00 71 1014.2
20260904070810 81 173 1.0 4.0 0.00 0.00 0.00 71 1014.2
20260904070323 81 185 1.0 4.0 0.00 0.00 0.00 71 1014.2
20260904065821 80 190 2.0 5.0 0.00 0.00 0.00 71 1014.3
20260904065315 80 152 1.0 4.0 0.00 0.00 0.00 71 1014.3
20260904064810 80 70 2.0 4.0 0.00 0.00 0.00 71 1014.3
20260904064325 80 168 1.0 4.0 0.00 0.00 0.00 71 1014.3
20260904063819 80 169 0.0 4.0 0.00 0.00 0.00 71 1014.3
20260904063312 80 181 1.0 4.0 0.00 0.00 0.00 71 1014.3
20260904062807 80 194 1.0 4.0 0.00 0.00 0.00 71 1014.3
20260904062322 81 157 0.0 4.0 0.00 0.00 0.00 71 1014.3
20260904061820 81 150 0.0 4.0 0.00 0.00 0.00 70 1014.4
20260904061315 81 111 0.0 3.0 0.00 0.00 0.00 70 1014.3
20260904060810 81 164 1.0 6.0 0.00 0.00 0.00 70 1014.4
20260904060344 81 158 1.0 6.0 0.00 0.00 0.00 69 1014.3
20260904055838 82 176 1.0 3.0 0.00 0.00 0.00 69 1014.4
20260904055311 82 177 0.0 4.0 0.00 0.00 0.00 68 1014.3
20260904054807 82 158 1.0 4.0 0.00 0.00 0.00 68 1014.3
20260904054322 82 146 1.0 5.0 0.00 0.00 0.00 68 1014.3
20260904053821 82 165 1.0 4.0 0.00 0.00 0.00 68 1014.2
20260904053335 82 169 0.0 3.0 0.00 0.00 0.00 68 1014.2
20260904052809 82 165 1.0 4.0 0.00 0.00 0.00 68 1014.2
20260904052324 82 172 1.0 4.0 0.00 0.00 0.00 67 1014.2
20260904051839 82 191 0.0 2.0 0.00 0.00 0.00 67 1014.2
20260904051313 83 161 1.0 2.0 0.00 0.00 0.00 67 1014.1
20260904050808 83 158 0.0 4.0 0.00 0.00 0.00 66 1014.1
20260904050343 83 120 0.0 3.0 0.00 0.00 0.00 66 1014.1
20260904045836 83 111 0.0 3.0 0.00 0.00 0.00 66 1014.1
20260904045309 83 174 1.0 5.0 0.00 0.00 0.00 66 1014.1
20260904044808 83 189 0.0 7.0 0.00 0.00 0.00 66 1014.0
20260904044323 83 98 2.0 7.0 0.00 0.00 0.00 65 1014.0
20260904043820 84 151 1.0 3.0 0.00 0.00 0.00 65 1014.1
20260904043312 84 175 1.0 4.0 0.00 0.00 0.00 65 1014.0
20260904042847 84 158 1.0 4.0 0.00 0.00 0.00 65 1014.0
20260904042319 84 146 1.0 4.0 0.00 0.00 0.00 65 1013.9
20260904041813 84 143 2.0 4.0 0.00 0.00 0.00 64 1014.0
20260904041308 84 164 1.0 5.0 0.00 0.00 0.00 64 1014.0
20260904040826 84 155 2.0 5.0 0.00 0.00 0.00 64 1014.1
20260904040320 84 164 0.0 3.0 0.00 0.00 0.00 64 1014.1
20260904035814 84 165 0.0 3.0 0.00 0.00 0.00 64 1014.1
20260904035307 84 158 0.0 2.0 0.00 0.00 0.00 64 1014.1
20260904034822 84 167 0.0 2.0 0.00 0.00 0.00 63 1014.0
20260904034316 84 183 0.0 2.0 0.00 0.00 0.00 63 1014.1
20260904033830 84 58 1.0 3.0 0.00 0.00 0.00 63 1014.0
20260904033324 84 186 0.0 4.0 0.00 0.00 0.00 63 1014.0
20260904032816 84 167 2.0 4.0 0.00 0.00 0.00 63 1014.0
20260904032335 84 190 0.0 1.0 0.00 0.00 0.00 63 1014.0
20260904031809 84 191 0.0 1.0 0.00 0.00 0.00 63 1014.0
20260904031322 84 167 0.0 0.0 0.00 0.00 0.00 62 1014.0
20260904030818 85 155 0.0 0.0 0.00 0.00 0.00 62 1014.0
20260904030312 85 158 0.0 0.0 0.00 0.00 0.00 61 1013.9
20260904025844 85 168 0.0 0.0 0.00 0.00 0.00 61 1013.9
20260904025317 85 157 0.0 0.0 0.00 0.00 0.00 60 1013.8
20260904024812 86 158 0.0 1.0 0.00 0.00 0.00 60 1013.8
20260904024311 86 162 0.0 0.0 0.00 0.00 0.00 59 1013.8
20260904023826 86 219 0.0 0.0 0.00 0.00 0.00 59 1013.8
20260904023321 86 193 0.0 0.0 0.00 0.00 0.00 59 1013.7
20260904022816 86 193 0.0 0.0 0.00 0.00 0.00 58 1013.6
20260904022311 87 189 0.0 0.0 0.00 0.00 0.00 57 1013.6
20260904021846 87 162 0.0 0.0 0.00 0.00 0.00 57 1013.5
20260904021320 87 115 0.0 0.0 0.00 0.00 0.00 57 1013.4
20260904020815 87 136 0.0 0.0 0.00 0.00 0.00 57 1013.3
20260904020314 86 352 0.0 0.0 0.00 0.00 0.00 58 1013.2
20260904015829 86 186 0.0 4.0 0.00 0.00 0.00 58 1013.1
20260904015322 85 186 0.0 4.0 0.00 0.00 0.00 58 1013.0
20260904014818 85 111 0.0 0.0 0.00 0.00 0.00 59 1012.9
20260904014313 85 169 0.0 0.0 0.00 0.00 0.00 59 1012.9
20260904013808 85 169 0.0 0.0 0.00 0.00 0.00 58 1012.9
20260904013322 85 169 0.0 0.0 0.00 0.00 0.00 58 1012.8
20260904012816 86 169 0.0 0.0 0.00 0.00 0.00 58 1012.7
20260904012351 86 169 0.0 0.0 0.00 0.00 0.00 57 1012.7
20260904010825 87 171 0.0 0.0 0.00 0.00 0.00 56 1012.4
20260904010319 87 171 0.0 0.0 0.00 0.00 0.00 55 1012.4
20260904005837 88 171 0.0 0.0 0.00 0.00 0.00 54 1012.4
20260904005330 88 181 0.0 0.0 0.00 0.00 0.00 55 1012.3
20260904004825 89 181 0.0 0.0 0.00 0.00 0.00 52 1012.3
20260904004340 90 181 0.0 0.0 0.00 0.00 0.00 51 1012.2
20260904003832 90 181 0.0 0.0 0.00 0.00 0.00 51 1012.3
20260904003327 91 181 0.0 0.0 0.00 0.00 0.00 48 1012.2
20260904002841 92 181 0.0 0.0 0.00 0.00 0.00 48 1012.1
20260904002335 92 181 0.0 0.0 0.00 0.00 0.00 47 1012.2
20260904001851 93 182 0.0 0.0 0.00 0.00 0.00 47 1012.2
20260904001325 93 183 0.0 0.0 0.00 0.00 0.00 46 1012.1
20260904000824 94 203 0.0 3.0 0.00 0.00 0.00 45 1012.0
20260904000357 94 204 0.0 3.0 0.00 0.00 0.00 44 1012.1
20260903235827 95 196 0.0 0.0 0.00 0.00 0.00 44 1012.1
20260903235320 95 167 0.0 0.0 0.00 0.00 0.00 44 1012.1
20260903234834 95 122 0.0 2.0 0.00 0.00 0.00 44 1012.0
20260903234326 96 222 0.0 4.0 0.00 0.00 0.00 43 1012.0
20260903233836 96 166 2.0 5.0 0.00 0.00 0.00 43 1012.0
20260903233329 96 163 0.0 5.0 0.00 0.00 0.00 42 1012.0
20260903232824 96 214 0.0 0.0 0.00 0.00 0.00 42 1012.0
20260903232324 96 214 0.0 4.0 0.00 0.00 0.00 42 1012.0
20260903231818 97 197 1.0 5.0 0.00 0.00 0.00 41 1012.1
20260903231332 97 244 1.0 5.0 0.00 0.00 0.00 41 1012.0
20260903230846 97 211 2.0 4.0 0.00 0.00 0.00 41 1012.0
20260903230339 97 218 1.0 4.0 0.00 0.00 0.00 40 1012.0
20260903225832 97 189 1.0 4.0 0.00 0.00 0.00 40 1012.0
20260903225327 98 182 0.0 3.0 0.00 0.00 0.00 41 1012.0
20260903224823 98 220 1.0 6.0 0.00 0.00 0.00 40 1011.9
20260903224320 98 215 0.0 6.0 0.00 0.00 0.00 40 1011.9
20260903223835 98 206 0.0 6.0 0.00 0.00 0.00 41 1011.9
20260903223328 98 215 3.0 6.0 0.00 0.00 0.00 39 1012.0
20260903222823 99 53 1.0 5.0 0.00 0.00 0.00 40 1011.9
20260903222336 99 174 0.0 8.0 0.00 0.00 0.00 39 1012.0
20260903221831 99 187 3.0 8.0 0.00 0.00 0.00 38 1012.0
20260903221346 100 216 0.0 4.0 0.00 0.00 0.00 38 1012.0
20260903220838 100 168 1.0 9.0 0.00 0.00 0.00 39 1012.0
20260903220331 100 231 3.0 9.0 0.00 0.00 0.00 39 1012.1
20260903215830 100 211 0.0 6.0 0.00 0.00 0.00 39 1012.2
20260903215323 100 194 2.0 9.0 0.00 0.00 0.00 37 1012.2
20260903214857 100 144 2.0 11.0 0.00 0.00 0.00 37 1012.3
20260903214332 100 198 0.0 11.0 0.00 0.00 0.00 41 1012.3
20260903213825 100 203 1.0 7.0 0.00 0.00 0.00 39 1012.3
20260903213339 101 233 3.0 7.0 0.00 0.00 0.00 38 1012.4
20260903212831 101 145 1.0 7.0 0.00 0.00 0.00 38 1012.4
20260903212326 101 167 1.0 7.0 0.00 0.00 0.00 37 1012.5
20260903211824 101 137 2.0 7.0 0.00 0.00 0.00 38 1012.6
20260903211319 101 225 2.0 7.0 0.00 0.00 0.00 38 1012.5
20260903210833 102 231 1.0 6.0 0.00 0.00 0.00 37 1012.6
20260903210327 102 153 0.0 7.0 0.00 0.00 0.00 39 1012.7
20260903205822 102 159 2.0 7.0 0.00 0.00 0.00 39 1012.7
20260903205337 101 197 2.0 6.0 0.00 0.00 0.00 38 1012.7
20260903204830 101 213 2.0 6.0 0.00 0.00 0.00 38 1012.7
20260903204325 101 160 2.0 6.0 0.00 0.00 0.00 39 1012.7
20260903203823 101 157 2.0 5.0 0.00 0.00 0.00 39 1012.7
20260903203337 100 217 2.0 9.0 0.00 0.00 0.00 38 1012.8
20260903202832 101 205 2.0 9.0 0.00 0.00 0.00 40 1012.9
20260903202327 101 184 1.0 8.0 0.00 0.00 0.00 40 1012.9
20260903201822 101 66 2.0 8.0 0.00 0.00 0.00 39 1012.9
20260903201336 102 176 3.0 6.0 0.00 0.00 0.00 41 1013.0